Regional Weather Roundup
Issued by NWS Upton, NY

Home | Current Version | Previous Version | Text Only | Print | Product List | Glossary On
Versions: 1 2 3 4 5 6 7 8 9 10 11 12 13 14 15 16 17 18 19 20 21 22 23 24 25 26 27 28 29 30 31 32 33 34 35 36 37 38 39 40 41 42 43 44 45 46 47 48 49 50
000
ASUS41 KOKX 300618
RWROKX

REGIONAL WEATHER ROUNDUP
NATIONAL WEATHER SERVICE NEW YORK NY
200 AM EDT TUE JUN 30 2015

NOTE: "FAIR" INDICATES FEW OR NO CLOUDS BELOW 12,000 FEET WITH NO
SIGNIFICANT WEATHER AND/OR OBSTRUCTIONS TO VISIBILITY.

NYZ071-072-176-178-NJZ106-104-300700-
NEW YORK CITY METRO AREA


CITY           SKY/WX    TMP DP  RH WIND       PRES   REMARKS
CENTRAL PARK   CLEAR     72  56  57 VRB7      29.98R
LAGUARDIA APRT PTCLDY    72  57  59 S8        29.95R
KENNEDY INTL   PTCLDY    69  61  75 SW8       29.97R
NEWARK/LIBERTY PTCLDY    68  58  70 CALM      29.96R
BRNX BOT. GARD   N/A     68  57  68 CALM      29.96R
TETERBORO      CLEAR     68  58  70 S5        29.94R
$$

NYZ177-179-078>081-300700-
LONG ISLAND NEW YORK

CITY           SKY/WX    TMP DP  RH WIND       PRES   REMARKS
FARMINGDALE    CLEAR     68  63  84 SW6       29.96S
ISLIP          CLEAR     66  62  87 SW5       29.95S
SHIRLEY        CLEAR     66  62  87 SW5       29.97S
WESTHAMPTON    CLEAR     58  58 100 CALM      29.98S
MONTAUK POINT    N/A     67  61  81 CALM      29.98R
$$

NYZ052-065-067-300700-
HUDSON VALLEY

CITY           SKY/WX    TMP DP  RH WIND       PRES   REMARKS
WHITE PLAINS   CLOUDY    66  59  78 CALM      29.96R
NEWBURGH       CLOUDY    64  61  88 CALM      29.96S
MONTGOMERY     CLOUDY    63  61  93 CALM      29.95S
POUGHKEEPSIE   CLOUDY    62  59  90 CALM      29.94S
ALBANY         CLOUDY    62  57  83 CALM      29.96R
$$

NJZ001-105-106-008-010-013-015-019>022-104-300700-
NEW JERSEY

CITY           SKY/WX    TMP DP  RH WIND       PRES   REMARKS
NEWARK/LIBERTY PTCLDY    68  58  70 CALM      29.96R
TETERBORO      CLEAR     68  58  70 S5        29.94R
CALDWELL       PTCLDY    62  57  83 CALM      29.97R
MORRISTOWN     CLEAR     61  57  88 CALM      29.96S
SOMERVILLE     CLEAR     59  57  93 CALM      29.95R
SUSSEX         CLOUDY    64  61  90 CALM      29.96S
ANDOVER          N/A     60  59  96 CALM      29.97S
TRENTON        CLEAR     66  58  75 CALM      29.96R
MILLVILLE      CLEAR     63  60  90 CALM      29.97S
ATLANTIC CITY  CLEAR     65  59  81 CALM      29.98R
WRIGHTSTOWN    CLEAR     62  61  96 S2        29.95S
TOMS RIVER     CLEAR     61  57  88 CALM      29.98R
BELMAR         CLEAR     66  57  72 SW5       29.97S
$$

PAZ047>061-062-071-300700-
EASTERN PENNSYLVANIA

CITY           SKY/WX    TMP DP  RH WIND       PRES   REMARKS
PHILADELPHIA   PTCLDY    70  59  68 S5        29.96S
ALLENTOWN      PTCLDY    63  58  83 CALM      29.95S
SCRANTON       CLOUDY    66  59  78 E5        29.95F
$$

CTZ002-004>006-009-010-012-RIZ004-006-007-MAZ004-011-015-300700-
SOUTHERN NEW ENGLAND
 IN CT

CITY           SKY/WX    TMP DP  RH WIND       PRES   REMARKS
BRADLEY INTL   PTCLDY    60  58  92 CALM      29.95S
HARTFORD       MOCLDY    63  59  87 CALM      29.95S
DANBURY        CLOUDY    60  56  86 CALM      29.97S
WTRBRY/OXFORD  PTCLDY    61  54  77 CALM      29.98S
BRIDGEPORT     CLOUDY    68  62  81 SW3       29.96R
MERIDEN        CLOUDY    61  58  90 CALM      29.96R
NEW HAVEN      PTCLDY    63  60  90 CALM      29.96R
CHESTER        FAIR      61  61 100 SW3       29.98R
GROTON         CLEAR     61  58  90 CALM      29.96S
WILLIMANTIC    CLOUDY    59  57  93 CALM      29.97S

 IN RI

CITY           SKY/WX    TMP DP  RH WIND       PRES   REMARKS
PROVIDENCE     CLEAR     62  59  90 SW5       29.96S
BLOCK ISLAND   CLEAR     64  61  88 SW8       29.97S
WESTERLY       CLEAR     63  61  93 CALM      29.97S

 IN MA

CITY           SKY/WX    TMP DP  RH WIND       PRES   REMARKS
BOSTON         PTCLDY    66  59  78 W7        29.95S
WORCESTER      CLEAR     60  56  86 W9        29.97S
WESTFIELD      PTCLDY    55  55 100 S3        29.96S FOG
PROVINCETOWN   CLEAR     61   3  10 SW6       29.96R
NANTUCKET      PTCLDY    64  61  90 SW9       29.98R
$$

ANZ330-335-338-340-345-350-353-355-300700-
COASTAL MARINE OBSERVATIONS


STATION/POSITION TIME  SKY/WX   TEMP    WIND        PRES    VSBY  WAVE
                                AIR SEA DIR/SP/G                  HT/PER
                 (UTC)          (F)     (DEG/KT/KT) (MB)    (MI)  (FT/S)
NY HARB ENTRANCE 0550            69 68  210/ 10/ 12 1014.2          3/ 8
4S FIRE IS       0503               66                N/A           3/ 8
20S FIRE ISLAND  0550            67 65  210/  8/  8 1014.6          3/ 8
GREAT SOUTH BAY  0500            70 72  250/ 12/ 16   N/A
23SW MTP         0550            65 64  200/  6/  8 1014.7          4/ 8
HUDSON CANYON    NOT AVBL
KINGS POINT      0500            69 64  170/  5/  7 1013.5
CENTRAL LI SOUND NOT AVBL
EASTERN LI SOUND 0500            65     310/  2/  4   N/A
ROBBINS REEF     0500            70     160/ 12/ 13 1013.0
$$


>>>>>>>>>>>>>>>>>>>>>>>>>>>> KEY <<<<<<<<<<<<<<<<<<<<<<<<<<<
>                                                          <
>     SKY/WX - SKY CONDITION/PRESENT WEATHER               <
>     TMP    - TEMPERATURE IN FAHRENHEIT                   <
>     DP     - DEWPOINT IN FAHRENHEIT                      <
>     RH     - RELATIVE HUMIDITY IN PERCENT                <
>     WIND   - DIRECTION AND SPEED IN MPH                  <
>     PRES   - MEAN SEA LEVEL PRESSURE IN INCHES OF HG     <
>     WCI    - WIND CHILL INDEX                            <
>     VSB    - VISIBILITY IN MILES                         <
>     HX     - HEAT INDEX                                  <
>     TC     - TEMPERATURE IN CELSIUS                      <
>     VRB    - VARIABLE WIND DIRECTION                     <
>                                                          <
>>>>>>>>>>>>>>>>>>>>>>>>>>>> KEY <<<<<<<<<<<<<<<<<<<<<<<<<<<





USA.gov is the U.S. government's official web portal to all federal, state and local government web resources and services.